Year,Month,Day,Hour,Minute,Value (Times are PST for temperature in C)
2014,07,12,00,00,20.60
2014,07,12,00,01,20.60
2014,07,12,00,02,20.60
2014,07,12,00,03,20.50
2014,07,12,00,04,20.50
2014,07,12,00,05,20.40
2014,07,12,00,06,20.40
2014,07,12,00,07,20.40
2014,07,12,00,08,20.40
2014,07,12,00,09,20.30
2014,07,12,00,10,20.30
2014,07,12,00,11,20.30
2014,07,12,00,12,20.30
2014,07,12,00,13,20.30
2014,07,12,00,14,20.30
2014,07,12,00,15,20.30
2014,07,12,00,16,20.30
2014,07,12,00,17,20.30
2014,07,12,00,18,20.30
2014,07,12,00,19,20.30
2014,07,12,00,20,20.30
2014,07,12,00,21,20.20
2014,07,12,00,22,20.20
2014,07,12,00,23,20.20
2014,07,12,00,24,20.20
2014,07,12,00,25,20.20
2014,07,12,00,26,20.20
2014,07,12,00,27,20.20
2014,07,12,00,28,20.20
2014,07,12,00,29,20.20
2014,07,12,00,30,20.20
2014,07,12,00,31,20.20
2014,07,12,00,32,20.20
2014,07,12,00,33,20.30
2014,07,12,00,34,20.30
2014,07,12,00,35,20.30
2014,07,12,00,36,20.30
2014,07,12,00,37,20.30
2014,07,12,00,38,20.30
2014,07,12,00,39,20.30
2014,07,12,00,40,20.30
2014,07,12,00,41,20.30
2014,07,12,00,42,20.20
2014,07,12,00,43,20.20
2014,07,12,00,44,20.20
2014,07,12,00,45,20.20
2014,07,12,00,46,20.10
2014,07,12,00,47,20.10
2014,07,12,00,48,20.10
2014,07,12,00,49,20.10
2014,07,12,00,50,20.10
2014,07,12,00,51,20.10
2014,07,12,00,52,20.10
2014,07,12,00,53,20.10
2014,07,12,00,54,20.10
2014,07,12,00,55,20.10
2014,07,12,00,56,20.10
2014,07,12,00,57,20.10
2014,07,12,00,58,20.10
2014,07,12,00,59,20.10
2014,07,12,01,00,20.10
2014,07,12,01,01,20.10
2014,07,12,01,02,20.10
2014,07,12,01,03,20.00
2014,07,12,01,04,20.00
2014,07,12,01,05,20.00
2014,07,12,01,06,19.90
2014,07,12,01,07,19.80
2014,07,12,01,08,19.80
2014,07,12,01,09,19.70
2014,07,12,01,10,19.60
2014,07,12,01,11,19.60
2014,07,12,01,12,19.60
2014,07,12,01,13,19.50
2014,07,12,01,14,19.40
2014,07,12,01,15,19.40
2014,07,12,01,16,19.40
2014,07,12,01,17,19.40
2014,07,12,01,18,19.40
2014,07,12,01,19,19.40
2014,07,12,01,20,19.30
2014,07,12,01,21,19.30
2014,07,12,01,22,19.30
2014,07,12,01,23,19.30
2014,07,12,01,24,19.30
2014,07,12,01,25,19.30
2014,07,12,01,26,19.30
2014,07,12,01,27,19.30
2014,07,12,01,28,19.30
2014,07,12,01,29,19.20
2014,07,12,01,30,19.20
2014,07,12,01,31,19.20
2014,07,12,01,32,19.20
2014,07,12,01,33,19.10
2014,07,12,01,34,19.10
2014,07,12,01,35,19.00
2014,07,12,01,36,19.00
2014,07,12,01,37,19.00
2014,07,12,01,38,18.90
2014,07,12,01,39,18.90
2014,07,12,01,40,18.90
2014,07,12,01,41,18.80
2014,07,12,01,42,18.80
2014,07,12,01,43,18.80
2014,07,12,01,44,18.80
2014,07,12,01,45,18.70
2014,07,12,01,46,18.70
2014,07,12,01,47,18.70
2014,07,12,01,48,18.70
2014,07,12,01,49,18.70
2014,07,12,01,50,18.70
2014,07,12,01,51,18.70
2014,07,12,01,52,18.70
2014,07,12,01,53,18.70
2014,07,12,01,54,18.60
2014,07,12,01,55,18.60
2014,07,12,01,56,18.60
2014,07,12,01,57,18.60
2014,07,12,01,58,18.60
2014,07,12,01,59,18.60
2014,07,12,02,00,18.60
2014,07,12,02,01,18.60
2014,07,12,02,02,18.50
2014,07,12,02,03,18.50
2014,07,12,02,04,18.50
2014,07,12,02,05,18.40
2014,07,12,02,06,18.40
2014,07,12,02,07,18.40
2014,07,12,02,08,18.40
2014,07,12,02,09,18.40
2014,07,12,02,10,18.30
2014,07,12,02,11,18.30
2014,07,12,02,12,18.30
2014,07,12,02,13,18.30
2014,07,12,02,14,18.30
2014,07,12,02,15,18.30
2014,07,12,02,16,18.30
2014,07,12,02,17,18.30
2014,07,12,02,18,18.30
2014,07,12,02,19,18.30
2014,07,12,02,20,18.30
2014,07,12,02,21,18.30
2014,07,12,02,22,18.30
2014,07,12,02,23,18.30
2014,07,12,02,24,18.30
2014,07,12,02,25,18.30
2014,07,12,02,26,18.30
2014,07,12,02,27,18.20
2014,07,12,02,28,18.20
2014,07,12,02,29,18.20
2014,07,12,02,30,18.20
2014,07,12,02,31,18.20
2014,07,12,02,32,18.20
2014,07,12,02,33,18.10
2014,07,12,02,34,18.10
2014,07,12,02,35,18.10
2014,07,12,02,36,18.10
2014,07,12,02,37,18.10
2014,07,12,02,38,18.10
2014,07,12,02,39,18.10
2014,07,12,02,40,18.10
2014,07,12,02,41,18.10
2014,07,12,02,42,18.10
2014,07,12,02,43,18.10
2014,07,12,02,44,18.20
2014,07,12,02,45,18.20
2014,07,12,02,46,18.20
2014,07,12,02,47,18.20
2014,07,12,02,48,18.10
2014,07,12,02,49,18.10
2014,07,12,02,50,18.10
2014,07,12,02,51,18.10
2014,07,12,02,52,18.10
2014,07,12,02,53,18.10
2014,07,12,02,54,18.10
2014,07,12,02,55,18.10
2014,07,12,02,56,18.00
2014,07,12,02,57,18.00
2014,07,12,02,58,18.00
2014,07,12,02,59,17.90
2014,07,12,03,00,17.90
2014,07,12,03,01,17.90
2014,07,12,03,02,17.90
2014,07,12,03,03,17.90
2014,07,12,03,04,17.90
2014,07,12,03,05,17.90
2014,07,12,03,06,17.90
2014,07,12,03,07,17.80
2014,07,12,03,08,17.80
2014,07,12,03,09,17.80
2014,07,12,03,10,17.80
2014,07,12,03,11,17.80
2014,07,12,03,12,17.80
2014,07,12,03,13,17.80
2014,07,12,03,14,17.70
2014,07,12,03,15,17.70
2014,07,12,03,16,17.60
2014,07,12,03,17,17.60
2014,07,12,03,18,17.50
2014,07,12,03,19,17.50
2014,07,12,03,20,17.40
2014,07,12,03,21,17.40
2014,07,12,03,22,17.40
2014,07,12,03,23,17.30
2014,07,12,03,24,17.30
2014,07,12,03,25,17.30
2014,07,12,03,26,17.20
2014,07,12,03,27,17.20
2014,07,12,03,28,17.20
2014,07,12,03,29,17.20
2014,07,12,03,30,17.10
2014,07,12,03,31,17.10
2014,07,12,03,32,17.10
2014,07,12,03,33,17.10
2014,07,12,03,34,17.10
2014,07,12,03,35,17.10
2014,07,12,03,36,17.10
2014,07,12,03,37,17.10
2014,07,12,03,38,17.10
2014,07,12,03,39,17.00
2014,07,12,03,40,17.00
2014,07,12,03,41,17.00
2014,07,12,03,42,16.90
2014,07,12,03,43,16.90
2014,07,12,03,44,16.90
2014,07,12,03,45,16.90
2014,07,12,03,46,16.90
2014,07,12,03,47,16.80
2014,07,12,03,48,16.80
2014,07,12,03,49,16.80
2014,07,12,03,50,16.80
2014,07,12,03,51,16.80
2014,07,12,03,52,16.80
2014,07,12,03,53,16.80
2014,07,12,03,54,16.80
2014,07,12,03,55,16.90
2014,07,12,03,56,16.90
2014,07,12,03,57,16.90
2014,07,12,03,58,17.00
2014,07,12,03,59,17.00
2014,07,12,04,00,17.00
2014,07,12,04,01,17.00
2014,07,12,04,02,17.00
2014,07,12,04,03,17.00
2014,07,12,04,04,17.00
2014,07,12,04,05,17.00
2014,07,12,04,06,16.90
2014,07,12,04,07,16.90
2014,07,12,04,08,16.90
2014,07,12,04,09,16.90
2014,07,12,04,10,16.90
2014,07,12,04,11,16.90
2014,07,12,04,12,16.90
2014,07,12,04,13,16.90
2014,07,12,04,14,16.90
2014,07,12,04,15,16.90
2014,07,12,04,16,16.90
2014,07,12,04,17,16.90
2014,07,12,04,18,16.90
2014,07,12,04,19,16.90
2014,07,12,04,20,17.00
2014,07,12,04,21,16.90
2014,07,12,04,22,16.90
2014,07,12,04,23,16.90
2014,07,12,04,24,16.90
2014,07,12,04,25,16.90
2014,07,12,04,26,16.90
2014,07,12,04,27,16.90
2014,07,12,04,28,16.90
2014,07,12,04,29,16.90
2014,07,12,04,30,16.80
2014,07,12,04,31,16.80
2014,07,12,04,32,16.80
2014,07,12,04,33,16.80
2014,07,12,04,34,16.70
2014,07,12,04,35,16.70
2014,07,12,04,36,16.70
2014,07,12,04,37,16.70
2014,07,12,04,38,16.70
2014,07,12,04,39,16.70
2014,07,12,04,40,16.60
2014,07,12,04,41,16.60
2014,07,12,04,42,16.60
2014,07,12,04,43,16.50
2014,07,12,04,44,16.50
2014,07,12,04,45,16.50
2014,07,12,04,46,16.50
2014,07,12,04,47,16.40
2014,07,12,04,48,16.40
2014,07,12,04,49,16.40
2014,07,12,04,50,16.30
2014,07,12,04,51,16.30
2014,07,12,04,52,16.30
2014,07,12,04,53,16.30
2014,07,12,04,54,16.30
2014,07,12,04,55,16.30
2014,07,12,04,56,16.30
2014,07,12,04,57,16.30
2014,07,12,04,58,16.30
2014,07,12,04,59,16.30
2014,07,12,05,00,16.30
2014,07,12,05,01,16.20
2014,07,12,05,02,16.20
2014,07,12,05,03,16.20
2014,07,12,05,04,16.20
2014,07,12,05,05,16.20
2014,07,12,05,06,16.20
2014,07,12,05,07,16.20
2014,07,12,05,08,16.20
2014,07,12,05,09,16.20
2014,07,12,05,10,16.20
2014,07,12,05,11,16.20
2014,07,12,05,12,16.20
2014,07,12,05,13,16.20
2014,07,12,05,14,16.20
2014,07,12,05,15,16.20
2014,07,12,05,16,16.20
2014,07,12,05,17,16.20
2014,07,12,05,18,16.20
2014,07,12,05,19,16.10
2014,07,12,05,20,16.10
2014,07,12,05,21,16.10
2014,07,12,05,22,16.10
2014,07,12,05,23,16.10
2014,07,12,05,24,16.10
2014,07,12,05,25,16.10
2014,07,12,05,26,16.10
2014,07,12,05,27,16.10
2014,07,12,05,28,16.10
2014,07,12,05,29,16.10
2014,07,12,05,30,16.10
2014,07,12,05,31,16.10
2014,07,12,05,32,16.10
2014,07,12,05,33,16.10
2014,07,12,05,34,16.10
2014,07,12,05,35,16.10
2014,07,12,05,36,16.10
2014,07,12,05,37,16.10
2014,07,12,05,38,16.10
2014,07,12,05,39,16.10
2014,07,12,05,40,16.10
2014,07,12,05,41,16.10
2014,07,12,05,42,16.10
2014,07,12,05,43,16.10
2014,07,12,05,44,16.10
2014,07,12,05,45,16.10
2014,07,12,05,46,16.10
2014,07,12,05,47,16.10
2014,07,12,05,48,16.10
2014,07,12,05,49,16.10
2014,07,12,05,50,16.10
2014,07,12,05,51,16.10
2014,07,12,05,52,16.10
2014,07,12,05,53,16.10
2014,07,12,05,54,16.10
2014,07,12,05,55,16.10
2014,07,12,05,56,16.10
2014,07,12,05,57,16.10
2014,07,12,05,58,16.10
2014,07,12,05,59,16.10
2014,07,12,06,00,16.00
2014,07,12,06,01,16.00
2014,07,12,06,02,16.00
2014,07,12,06,03,16.00
2014,07,12,06,04,16.00
2014,07,12,06,05,15.90
2014,07,12,06,06,15.90
2014,07,12,06,07,16.00
2014,07,12,06,08,16.00
2014,07,12,06,09,16.00
2014,07,12,06,10,16.00
2014,07,12,06,11,16.00
2014,07,12,06,12,16.00
2014,07,12,06,13,16.10
2014,07,12,06,14,16.10
2014,07,12,06,15,16.10
2014,07,12,06,16,16.10
2014,07,12,06,17,16.10
2014,07,12,06,18,16.10
2014,07,12,06,19,16.10
2014,07,12,06,20,16.10
2014,07,12,06,21,16.10
2014,07,12,06,22,16.20
2014,07,12,06,23,16.20
2014,07,12,06,24,16.20
2014,07,12,06,25,16.20
2014,07,12,06,26,16.20
2014,07,12,06,27,16.20
2014,07,12,06,28,16.20
2014,07,12,06,29,16.20
2014,07,12,06,30,16.20
2014,07,12,06,31,16.20
2014,07,12,06,32,16.20
2014,07,12,06,33,16.20
2014,07,12,06,34,16.20
2014,07,12,06,35,16.20
2014,07,12,06,36,16.30
2014,07,12,06,37,16.30
2014,07,12,06,38,16.30
2014,07,12,06,39,16.30
2014,07,12,06,40,16.30
2014,07,12,06,41,16.40
2014,07,12,06,42,16.40
2014,07,12,06,43,16.50
2014,07,12,06,44,16.50
2014,07,12,06,45,16.50
2014,07,12,06,46,16.60
2014,07,12,06,47,16.60
2014,07,12,06,48,16.60
2014,07,12,06,49,16.60
2014,07,12,06,50,16.70
2014,07,12,06,51,16.70
2014,07,12,06,52,16.70
2014,07,12,06,53,16.80
2014,07,12,06,54,16.80
2014,07,12,06,55,16.80
2014,07,12,06,56,16.90
2014,07,12,06,57,16.90
2014,07,12,06,58,17.00
2014,07,12,06,59,17.00
2014,07,12,07,00,17.10
2014,07,12,07,01,17.20
2014,07,12,07,02,17.20
2014,07,12,07,03,17.30
2014,07,12,07,04,17.30
2014,07,12,07,05,17.30
2014,07,12,07,06,17.40
2014,07,12,07,07,17.40
2014,07,12,07,08,17.40
2014,07,12,07,09,17.50
2014,07,12,07,10,17.50
2014,07,12,07,11,17.60
2014,07,12,07,12,17.60
2014,07,12,07,13,17.60
2014,07,12,07,14,17.70
2014,07,12,07,15,17.70
2014,07,12,07,16,17.70
2014,07,12,07,17,17.80
2014,07,12,07,18,17.80
2014,07,12,07,19,17.90
2014,07,12,07,20,17.90
2014,07,12,07,21,18.00
2014,07,12,07,22,18.00
2014,07,12,07,23,18.10
2014,07,12,07,24,18.20
2014,07,12,07,25,18.20
2014,07,12,07,26,18.30
2014,07,12,07,27,18.30
2014,07,12,07,28,18.40
2014,07,12,07,29,18.40
2014,07,12,07,30,18.50
2014,07,12,07,31,18.50
2014,07,12,07,32,18.60
2014,07,12,07,33,18.60
2014,07,12,07,34,18.70
2014,07,12,07,35,18.70
2014,07,12,07,36,18.80
2014,07,12,07,37,18.80
2014,07,12,07,38,18.90
2014,07,12,07,39,19.00
2014,07,12,07,40,19.00
2014,07,12,07,41,19.10
2014,07,12,07,42,19.20
2014,07,12,07,43,19.20
2014,07,12,07,44,19.30
2014,07,12,07,45,19.40
2014,07,12,07,46,19.40
2014,07,12,07,47,19.50
2014,07,12,07,48,19.60
2014,07,12,07,49,19.60
2014,07,12,07,50,19.70
2014,07,12,07,51,19.70
2014,07,12,07,52,19.80
2014,07,12,07,53,19.80
2014,07,12,07,54,19.90
2014,07,12,07,55,19.90
2014,07,12,07,56,20.00
2014,07,12,07,57,20.10
2014,07,12,07,58,20.10
2014,07,12,07,59,20.20
2014,07,12,08,00,20.20
2014,07,12,08,01,20.30
2014,07,12,08,02,20.30
2014,07,12,08,03,20.40
2014,07,12,08,04,20.40
2014,07,12,08,05,20.50
2014,07,12,08,06,20.60
2014,07,12,08,07,20.60
2014,07,12,08,08,20.70
2014,07,12,08,09,20.70
2014,07,12,08,10,20.80
2014,07,12,08,11,20.80
2014,07,12,08,12,20.80
2014,07,12,08,13,20.90
2014,07,12,08,14,20.90
2014,07,12,08,15,20.90
2014,07,12,08,16,21.00
2014,07,12,08,17,21.10
2014,07,12,08,18,21.10
2014,07,12,08,19,21.10
2014,07,12,08,20,21.20
2014,07,12,08,21,21.20
2014,07,12,08,22,21.20
2014,07,12,08,23,21.30
2014,07,12,08,24,21.30
2014,07,12,08,25,21.40
2014,07,12,08,26,21.40
2014,07,12,08,27,21.50
2014,07,12,08,28,21.50
2014,07,12,08,29,21.60
2014,07,12,08,30,21.70
2014,07,12,08,31,21.70
2014,07,12,08,32,21.80
2014,07,12,08,33,21.80
2014,07,12,08,34,21.90
2014,07,12,08,35,22.00
2014,07,12,08,36,22.00
2014,07,12,08,37,22.10
2014,07,12,08,38,22.10
2014,07,12,08,39,22.20
2014,07,12,08,40,22.30
2014,07,12,08,41,22.30
2014,07,12,08,42,22.40
2014,07,12,08,43,22.50
2014,07,12,08,44,22.60
2014,07,12,08,45,22.70
2014,07,12,08,46,22.70
2014,07,12,08,47,22.80
2014,07,12,08,48,22.90
2014,07,12,08,49,23.00
2014,07,12,08,50,23.10
2014,07,12,08,51,23.10
2014,07,12,08,52,23.20
2014,07,12,08,53,23.30
2014,07,12,08,54,23.40
2014,07,12,08,55,23.50
2014,07,12,08,56,23.60
2014,07,12,08,57,23.70
2014,07,12,08,58,23.80
2014,07,12,08,59,23.80
2014,07,12,09,00,23.90
2014,07,12,09,01,24.00
2014,07,12,09,02,24.00
2014,07,12,09,03,24.10
2014,07,12,09,04,24.10
2014,07,12,09,05,24.20
2014,07,12,09,06,24.20
2014,07,12,09,07,24.20
2014,07,12,09,08,24.30
2014,07,12,09,09,24.30
2014,07,12,09,10,24.40
2014,07,12,09,11,24.40
2014,07,12,09,12,24.40
2014,07,12,09,13,24.50
2014,07,12,09,14,24.50
2014,07,12,09,15,24.60
2014,07,12,09,16,24.60
2014,07,12,09,17,24.70
2014,07,12,09,18,24.80
2014,07,12,09,19,24.80
2014,07,12,09,20,24.80
2014,07,12,09,21,24.90
2014,07,12,09,22,24.90
2014,07,12,09,23,24.90
2014,07,12,09,24,24.90
2014,07,12,09,25,24.90
2014,07,12,09,26,24.90
2014,07,12,09,27,24.80
2014,07,12,09,28,24.80
2014,07,12,09,29,24.70
2014,07,12,09,30,24.70
2014,07,12,09,31,24.70
2014,07,12,09,32,24.70
2014,07,12,09,33,24.60
2014,07,12,09,34,24.60
2014,07,12,09,35,24.60
2014,07,12,09,36,24.70
2014,07,12,09,37,24.70
2014,07,12,09,38,24.70
2014,07,12,09,39,24.80
2014,07,12,09,40,24.80
2014,07,12,09,41,24.80
2014,07,12,09,42,24.90
2014,07,12,09,43,24.90
2014,07,12,09,44,25.00
2014,07,12,09,45,25.00
2014,07,12,09,46,25.00
2014,07,12,09,47,25.10
2014,07,12,09,48,25.10
2014,07,12,09,49,25.10
2014,07,12,09,50,25.20
2014,07,12,09,51,25.20
2014,07,12,09,52,25.30
2014,07,12,09,53,25.30
2014,07,12,09,54,25.40
2014,07,12,09,55,25.40
2014,07,12,09,56,25.40
2014,07,12,09,57,25.40
2014,07,12,09,58,25.40
2014,07,12,09,59,25.40
2014,07,12,10,00,25.40
2014,07,12,10,01,25.40
2014,07,12,10,02,25.40
2014,07,12,10,03,25.40
2014,07,12,10,04,25.40
2014,07,12,10,05,25.40
2014,07,12,10,06,25.30
2014,07,12,10,07,25.40
2014,07,12,10,08,25.40
2014,07,12,10,09,25.40
2014,07,12,10,10,25.40
2014,07,12,10,11,25.40
2014,07,12,10,12,25.40
2014,07,12,10,13,25.40
2014,07,12,10,14,25.40
2014,07,12,10,15,25.40
2014,07,12,10,16,25.50
2014,07,12,10,17,25.50
2014,07,12,10,18,25.50
2014,07,12,10,19,25.60
2014,07,12,10,20,25.60
2014,07,12,10,21,25.70
2014,07,12,10,22,25.70
2014,07,12,10,23,25.70
2014,07,12,10,24,25.70
2014,07,12,10,25,25.70
2014,07,12,10,26,25.70
2014,07,12,10,27,25.70
2014,07,12,10,28,25.80
2014,07,12,10,29,25.80
2014,07,12,10,30,25.90
2014,07,12,10,31,25.90
2014,07,12,10,32,26.00
2014,07,12,10,33,26.10
2014,07,12,10,34,26.20
2014,07,12,10,35,26.30
2014,07,12,10,36,26.30
2014,07,12,10,37,26.30
2014,07,12,10,38,26.40
2014,07,12,10,39,26.40
2014,07,12,10,40,26.50
2014,07,12,10,41,26.50
2014,07,12,10,42,26.60
2014,07,12,10,43,26.60
2014,07,12,10,44,26.60
2014,07,12,10,45,26.60
2014,07,12,10,46,26.60
2014,07,12,10,47,26.70
2014,07,12,10,48,26.70
2014,07,12,10,49,26.80
2014,07,12,10,50,26.90
2014,07,12,10,51,27.00
2014,07,12,10,52,27.10
2014,07,12,10,53,27.20
2014,07,12,10,54,27.30
2014,07,12,10,55,27.40
2014,07,12,10,56,27.40
2014,07,12,10,57,27.50
2014,07,12,10,58,27.50
2014,07,12,10,59,27.50
2014,07,12,11,00,27.50
2014,07,12,11,01,27.50
2014,07,12,11,02,27.50
2014,07,12,11,03,27.50
2014,07,12,11,04,27.50
2014,07,12,11,05,27.40
2014,07,12,11,06,27.30
2014,07,12,11,07,27.30
2014,07,12,11,08,27.20
2014,07,12,11,09,27.10
2014,07,12,11,10,27.10
2014,07,12,11,11,27.00
2014,07,12,11,12,27.00
2014,07,12,11,13,27.00
2014,07,12,11,14,27.00
2014,07,12,11,15,26.90
2014,07,12,11,16,26.90
2014,07,12,11,17,26.90
2014,07,12,11,18,26.90
2014,07,12,11,19,26.90
2014,07,12,11,20,26.90
2014,07,12,11,21,27.00
2014,07,12,11,22,27.00
2014,07,12,11,23,27.00
2014,07,12,11,24,27.00
2014,07,12,11,25,27.00
2014,07,12,11,26,27.00
2014,07,12,11,27,26.90
2014,07,12,11,28,26.90
2014,07,12,11,29,26.90
2014,07,12,11,30,26.90
2014,07,12,11,31,26.90
2014,07,12,11,32,26.90
2014,07,12,11,33,26.90
2014,07,12,11,34,27.00
2014,07,12,11,35,27.00
2014,07,12,11,36,27.00
2014,07,12,11,37,27.00
2014,07,12,11,38,27.00
2014,07,12,11,39,27.00
2014,07,12,11,40,27.00
2014,07,12,11,41,26.90
2014,07,12,11,42,26.90
2014,07,12,11,43,26.90
2014,07,12,11,44,26.90
2014,07,12,11,45,26.90
2014,07,12,11,46,26.90
2014,07,12,11,47,27.00
2014,07,12,11,48,27.00
2014,07,12,11,49,27.00
2014,07,12,11,50,27.00
2014,07,12,11,51,27.00
2014,07,12,11,52,27.00
2014,07,12,11,53,26.90
2014,07,12,11,54,26.90
2014,07,12,11,55,26.90
2014,07,12,11,56,26.90
2014,07,12,11,57,26.90
2014,07,12,11,58,26.90
2014,07,12,11,59,26.90
2014,07,12,12,00,26.90
2014,07,12,12,01,26.90
2014,07,12,12,02,26.80
2014,07,12,12,03,26.80
2014,07,12,12,04,26.80
2014,07,12,12,05,26.80
2014,07,12,12,06,26.80
2014,07,12,12,07,26.80
2014,07,12,12,08,26.80
2014,07,12,12,09,26.70
2014,07,12,12,10,26.60
2014,07,12,12,11,26.60
2014,07,12,12,12,26.50
2014,07,12,12,13,26.50
2014,07,12,12,14,26.40
2014,07,12,12,15,26.40
2014,07,12,12,16,26.30
2014,07,12,12,17,26.30
2014,07,12,12,18,26.30
2014,07,12,12,19,26.30
2014,07,12,12,20,26.30
2014,07,12,12,21,26.30
2014,07,12,12,22,26.30
2014,07,12,12,23,26.30
2014,07,12,12,24,26.30
2014,07,12,12,25,26.30
2014,07,12,12,26,26.30
2014,07,12,12,27,26.20
2014,07,12,12,28,26.20
2014,07,12,12,29,26.20
2014,07,12,12,30,26.20
2014,07,12,12,31,26.20
2014,07,12,12,32,26.20
2014,07,12,12,33,26.20
2014,07,12,12,34,26.30
2014,07,12,12,35,26.30
2014,07,12,12,36,26.30
2014,07,12,12,37,26.30
2014,07,12,12,38,26.30
2014,07,12,12,39,26.30
2014,07,12,12,40,26.30
2014,07,12,12,41,26.40
2014,07,12,12,42,26.50
2014,07,12,12,43,26.60
2014,07,12,12,44,26.60
2014,07,12,12,45,26.70
2014,07,12,12,46,26.70
2014,07,12,12,47,26.80
2014,07,12,12,48,26.80
2014,07,12,12,49,26.80
2014,07,12,12,50,26.90
2014,07,12,12,51,26.90
2014,07,12,12,52,26.90
2014,07,12,12,53,26.90
2014,07,12,12,54,26.90
2014,07,12,12,55,26.90
2014,07,12,12,56,26.90
2014,07,12,12,57,26.90
2014,07,12,12,58,26.90
2014,07,12,12,59,26.90
2014,07,12,13,00,27.00
2014,07,12,13,01,27.00
2014,07,12,13,02,27.10
2014,07,12,13,03,27.10
2014,07,12,13,04,27.10
2014,07,12,13,05,27.10
2014,07,12,13,06,27.10
2014,07,12,13,07,27.00
2014,07,12,13,08,27.00
2014,07,12,13,09,27.00
2014,07,12,13,10,26.90
2014,07,12,13,11,26.90
2014,07,12,13,12,26.90
2014,07,12,13,13,26.90
2014,07,12,13,14,26.90
2014,07,12,13,15,26.90
2014,07,12,13,16,26.90
2014,07,12,13,17,26.90
2014,07,12,13,18,26.90
2014,07,12,13,19,27.00
2014,07,12,13,20,27.10
2014,07,12,13,21,27.10
2014,07,12,13,22,27.10
2014,07,12,13,23,27.10
2014,07,12,13,24,27.20
2014,07,12,13,25,27.20
2014,07,12,13,26,27.20
2014,07,12,13,27,27.30
2014,07,12,13,28,27.30
2014,07,12,13,29,27.30
2014,07,12,13,30,27.30
2014,07,12,13,31,27.30
2014,07,12,13,32,27.30
2014,07,12,13,33,27.30
2014,07,12,13,34,27.30
2014,07,12,13,35,27.40
2014,07,12,13,36,27.40
2014,07,12,13,37,27.40
2014,07,12,13,38,27.50
2014,07,12,13,39,27.60
2014,07,12,13,40,27.60
2014,07,12,13,41,27.60
2014,07,12,13,42,27.60
2014,07,12,13,43,27.70
2014,07,12,13,44,27.70
2014,07,12,13,45,27.70
2014,07,12,13,46,27.70
2014,07,12,13,47,27.70
2014,07,12,13,48,27.70
2014,07,12,13,49,27.70
2014,07,12,13,50,27.70
2014,07,12,13,51,27.70
2014,07,12,13,52,27.80
2014,07,12,13,53,27.80
2014,07,12,13,54,27.80
2014,07,12,13,55,27.80
2014,07,12,13,56,27.70
2014,07,12,13,57,27.70
2014,07,12,13,58,27.70
2014,07,12,13,59,27.70
2014,07,12,14,00,27.70
2014,07,12,14,01,27.70
2014,07,12,14,02,27.70
2014,07,12,14,03,27.60
2014,07,12,14,04,27.50
2014,07,12,14,05,27.50
2014,07,12,14,06,27.50
2014,07,12,14,07,27.50
2014,07,12,14,08,27.40
2014,07,12,14,09,27.40
2014,07,12,14,10,27.40
2014,07,12,14,11,27.40
2014,07,12,14,12,27.40
2014,07,12,14,13,27.40
2014,07,12,14,14,27.40
2014,07,12,14,15,27.40
2014,07,12,14,16,27.40
2014,07,12,14,17,27.40
2014,07,12,14,18,27.40
2014,07,12,14,19,27.40
2014,07,12,14,20,27.40
2014,07,12,14,21,27.50
2014,07,12,14,22,27.50
2014,07,12,14,23,27.60
2014,07,12,14,24,27.70
2014,07,12,14,25,27.70
2014,07,12,14,26,27.60
2014,07,12,14,27,27.60
2014,07,12,14,28,27.60
2014,07,12,14,29,27.60
2014,07,12,14,30,27.60
2014,07,12,14,31,27.60
2014,07,12,14,32,27.60
2014,07,12,14,33,27.60
2014,07,12,14,34,27.60
2014,07,12,14,35,27.60
2014,07,12,14,36,27.60
2014,07,12,14,37,27.70
2014,07,12,14,38,27.70
2014,07,12,14,39,27.60
2014,07,12,14,40,27.60
2014,07,12,14,41,27.60
2014,07,12,14,42,27.60
2014,07,12,14,43,27.60
2014,07,12,14,44,27.60
2014,07,12,14,45,27.50
2014,07,12,14,46,27.50
2014,07,12,14,47,27.40
2014,07,12,14,48,27.40
2014,07,12,14,49,27.40
2014,07,12,14,50,27.50
2014,07,12,14,51,27.50
2014,07,12,14,52,27.60
2014,07,12,14,53,27.70
2014,07,12,14,54,27.70
2014,07,12,14,55,27.80
2014,07,12,14,56,27.80
2014,07,12,14,57,27.80
2014,07,12,14,58,27.80
2014,07,12,14,59,27.80
2014,07,12,15,00,27.80
2014,07,12,15,01,27.80
2014,07,12,15,02,27.80
2014,07,12,15,03,27.80
2014,07,12,15,04,27.70
2014,07,12,15,05,27.70
2014,07,12,15,06,27.80
2014,07,12,15,07,27.80
2014,07,12,15,08,27.80
2014,07,12,15,09,27.80
2014,07,12,15,10,27.80
2014,07,12,15,11,27.80
2014,07,12,15,12,27.90
2014,07,12,15,13,27.90
2014,07,12,15,14,27.90
2014,07,12,15,15,27.90
2014,07,12,15,16,27.80
2014,07,12,15,17,27.80
2014,07,12,15,18,27.80
2014,07,12,15,19,27.80
2014,07,12,15,20,27.80
2014,07,12,15,21,27.80
2014,07,12,15,22,27.80
2014,07,12,15,23,27.80
2014,07,12,15,24,27.90
2014,07,12,15,25,27.90
2014,07,12,15,26,28.00
2014,07,12,15,27,28.00
2014,07,12,15,28,28.10
2014,07,12,15,29,28.10
2014,07,12,15,30,28.10
2014,07,12,15,31,28.20
2014,07,12,15,32,28.20
2014,07,12,15,33,28.20
2014,07,12,15,34,28.30
2014,07,12,15,35,28.30
2014,07,12,15,36,28.30
2014,07,12,15,37,28.30
2014,07,12,15,38,28.40
2014,07,12,15,39,28.40
2014,07,12,15,40,28.50
2014,07,12,15,41,28.50
2014,07,12,15,42,28.50
2014,07,12,15,43,28.60
2014,07,12,15,44,28.60
2014,07,12,15,45,28.70
2014,07,12,15,46,28.70
2014,07,12,15,47,28.80
2014,07,12,15,48,28.80
2014,07,12,15,49,28.80
2014,07,12,15,50,28.80
2014,07,12,15,51,28.80
2014,07,12,15,52,28.80
2014,07,12,15,53,28.80
2014,07,12,15,54,28.80
2014,07,12,15,55,28.80
2014,07,12,15,56,28.80
2014,07,12,15,57,28.80
2014,07,12,15,58,28.80
2014,07,12,15,59,28.80
2014,07,12,16,00,28.80
2014,07,12,16,01,28.80
2014,07,12,16,02,28.80
2014,07,12,16,03,28.80
2014,07,12,16,04,28.80
2014,07,12,16,05,28.70
2014,07,12,16,06,28.70
2014,07,12,16,07,28.70
2014,07,12,16,08,28.70
2014,07,12,16,09,28.70
2014,07,12,16,10,28.80
2014,07,12,16,11,28.70
2014,07,12,16,12,28.70
2014,07,12,16,13,28.70
2014,07,12,16,14,28.70
2014,07,12,16,15,28.70
2014,07,12,16,16,28.60
2014,07,12,16,17,28.60
2014,07,12,16,18,28.60
2014,07,12,16,19,28.60
2014,07,12,16,20,28.60
2014,07,12,16,21,28.70
2014,07,12,16,22,28.70
2014,07,12,16,23,28.70
2014,07,12,16,24,28.80
2014,07,12,16,25,28.80
2014,07,12,16,26,28.80
2014,07,12,16,27,28.80
2014,07,12,16,28,28.90
2014,07,12,16,29,28.90
2014,07,12,16,30,28.90
2014,07,12,16,31,28.90
2014,07,12,16,32,28.90
2014,07,12,16,33,28.90
2014,07,12,16,34,28.90
2014,07,12,16,35,28.90
2014,07,12,16,36,28.90
2014,07,12,16,37,28.90
2014,07,12,16,38,28.90
2014,07,12,16,39,28.90
2014,07,12,16,40,28.90
2014,07,12,16,41,28.90
2014,07,12,16,42,28.90
2014,07,12,16,43,28.90
2014,07,12,16,44,28.80
2014,07,12,16,45,28.80
2014,07,12,16,46,28.70
2014,07,12,16,47,28.70
2014,07,12,16,48,28.70
2014,07,12,16,49,28.70
2014,07,12,16,50,28.70
2014,07,12,16,51,28.70
2014,07,12,16,52,28.70
2014,07,12,16,53,28.80
2014,07,12,16,54,28.80
2014,07,12,16,55,28.80
2014,07,12,16,56,28.80
2014,07,12,16,57,28.90
2014,07,12,16,58,28.90
2014,07,12,16,59,28.90
2014,07,12,17,00,28.90
2014,07,12,17,01,29.00
2014,07,12,17,02,29.00
2014,07,12,17,03,29.10
2014,07,12,17,04,29.10
2014,07,12,17,05,29.10
2014,07,12,17,06,29.00
2014,07,12,17,07,29.00
2014,07,12,17,08,29.00
2014,07,12,17,09,28.90
2014,07,12,17,10,28.90
2014,07,12,17,11,28.90
2014,07,12,17,12,28.90
2014,07,12,17,13,28.90
2014,07,12,17,14,28.90
2014,07,12,17,15,28.90
2014,07,12,17,16,28.90
2014,07,12,17,17,28.90
2014,07,12,17,18,28.90
2014,07,12,17,19,28.90